sat.trackr.live / text

‹ back to catalog

SENTINEL-6B

NORAD 66514 · 2025-264A

PAYLOAD ACTIVE UNKNOWN

§ Identity

Operator
Country
ESA
Launch date
2025-11-17
Launch site
AFWTR
Launch vehicle
Mass (kg)
RCS (m²)

Purposes: earth_obs

External: N2YO · Heavens-Above · Gunter

§ Orbital elements

Epoch: 2026-09-20T00:37:41.456064Z

Period
112.42 min
Inclination
66.0409°
Eccentricity
0.0007883
Mean motion
12.80929337 rev/d
Perigee alt
1,331.7 km
Apogee alt
1,343.8 km
Semi-major
7,715.9 km
B*
8.2429e-5
RAAN
298.1975°
Arg perigee
267.9004°
Mean anomaly
92.1109°
Rev number
3,931

§ Raw data

SENTINEL-6B1 66514U 25264A   26263.02617426 -.00000042  00000+0  82429-4 0  99932 66514  66.0409 298.1975 0007883 267.9004  92.1109 12.80929337 39316

JSON: /api/v1/satellites/66514 · /tle

For live sub-satellite position, see the globe view (requires WebGL).

§ Visibility from observer

Set your observer location to see the next 7 days of passes ≥ 10°. The values pass through the URL so the page stays shareable.

No JS? Fill the form by hand. The geolocation button needs JavaScript.